Home   Weather   Panama City   Past weeks

Flag for USA Past Weather in Panama City, Florida, USA — Yesterday and Last 2 Weeks

68 °F

Partly sunny.

Feels Like: 68 °F
Forecast: 54 / 79 °F
Wind: 6 mph from Northeast

Location: Tyndall Air Force Base

Current Time: Oct 24, 2016 at 11:07:52 AM

Latest Report: Oct 24, 2016 at 9:56 AM

Visibility: 10 mi

Pressure: 30.31 "Hg

Humidity: 52%

Dew Point: 49 °F

Location of Panama CityLocation

Past Weather in Panama City — Graph


Panama City Temperature Yesterday

Maximum temperature yesterday: 78 °F (at 2:56 PM)
Minimum temperature yesterday: 51 °F (at 1:56 AM)
Average temperature yesterday: 62 °F

High & Low Weather Summary for the Past Weeks

High88 °F (Oct 9, 3:56 PM)100% (Oct 19, 3:01 AM)30.31 "Hg (Oct 19, 3:01 AM)
Low50 °F (Oct 22, 11:56 PM)25% (Oct 22, 2:56 PM)29.89 "Hg (Oct 21, 2:56 PM)
Average71 °F70%30.10 "Hg
* Reported Oct 9 9:56 AM — Oct 24 9:56 AM, Panama City, Weather by CustomWeather, © 2016

Note: Actual official high and low records may vary slightly from our data, if they occured in-between our weather recording intervals... More about our weather records


Panama City Weather History for the Previous 24 Hours

Scroll right to see more
Time TempWeatherWind HumidityBarometerVisibility
9:56 AM
Mon, Oct 24
68 °FPartly sunny.6 mph52%30.31 "Hg10 mi
8:56 AM65 °FSunny.7 mph57%30.31 "Hg10 mi
7:56 AM58 °FPartly sunny.No wind84%30.29 "Hg10 mi
6:56 AM54 °FSunny.3 mph83%30.28 "Hg10 mi
5:56 AM52 °FSunny.2 mph94%30.27 "Hg10 mi
4:56 AM50 °FClear.No wind95%30.26 "Hg10 mi
3:56 AM51 °FClear.No wind95%30.25 "Hg10 mi
2:56 AM51 °FClear.No wind95%30.25 "Hg10 mi
1:56 AM53 °FClear.No wind94%30.25 "Hg10 mi
12:56 AM53 °FClear.No wind94%30.25 "Hg10 mi
11:56 PM
Sun, Oct 23
53 °FClear.No wind90%30.26 "Hg10 mi
10:56 PM53 °FClear.No wind88%30.26 "Hg10 mi
9:56 PM54 °FClear.No wind82%30.27 "Hg10 mi
8:56 PM56 °FClear.No wind78%30.25 "Hg10 mi
7:56 PM59 °FClear.No wind73%30.24 "Hg10 mi
6:56 PM61 °FClear.No wind73%30.22 "Hg10 mi
5:56 PM71 °FClear.5 mph47%30.21 "Hg10 mi
4:56 PM77 °FSunny.3 mph26%30.20 "Hg10 mi
3:56 PM78 °FSunny.3 mph26%30.20 "Hg10 mi
2:56 PM78 °FSunny.5 mph26%30.21 "Hg10 mi
1:56 PM76 °FSunny.7 mph26%30.22 "Hg10 mi
12:56 PM75 °FSunny.8 mph28%30.25 "Hg10 mi
11:56 AM72 °FSunny.9 mph30%30.28 "Hg10 mi
Weather by CustomWeather, © 2016

See weather overviewHow to use our weather pages